Regional Weather Roundup
Issued by NWS Little Rock, AR

Home | Current Version | Previous Version | Graphics & Text | Print | Product List | Glossary On
Versions: 1 2 3 4 5 6 7 8 9 10 11 12 13 14 15 16 17 18 19 20 21 22 23 24 25 26 27 28 29 30 31 32 33 34 35 36 37 38 39 40 41 42 43 44 45 46 47 48 49 50
000
ASUS44 KLZK 010405
RWRLZK

WEATHER ROUNDUP FOR ARKANSAS
NATIONAL WEATHER SERVICE LITTLE ROCK AR
1100 PM CDT TUE JUN 30 2015

NOTE: "FAIR" INDICATES FEW OR NO CLOUDS BELOW 12,000 FEET WITH NO
SIGNIFICANT WEATHER AND/OR OBSTRUCTIONS TO VISIBILITY.

ARZ001-003-010-029-010500-
NORTHWEST ARKANSAS

CITY           SKY/WX    TMP DP  RH WIND       PRES   REMARKS
FAYETTEVILLE   CLEAR     74  73  97 S5        29.99R
FORT SMITH     CLEAR     83  71  67 S7        29.96R HX  87
HARRISON       CLEAR     75  72  90 S6        30.00R
BENTONVILLE    CLEAR     79  70  73 S5        30.00R
ROGERS         CLEAR     78  71  79 S7        30.00R
SILOAM SPGS    CLEAR     75  68  78 S6        29.99R
HIGHFILL       CLEAR     77  73  87 S5        29.98R
$$

ARZ004-005-016-010500-
NORTH CENTRAL ARKANSAS

CITY           SKY/WX    TMP DP  RH WIND       PRES   REMARKS
BATESVILLE     CLEAR     79  70  73 S5        29.98R
FLIPPIN        CLEAR     75  72  88 CALM      29.95S
MTN HOME       PTCLDY    75  70  84 S5        29.97R
$$

ARZ040-041-010500-
WEST CENTRAL ARKANSAS

CITY           SKY/WX    TMP DP  RH WIND       PRES   REMARKS
MENA           CLEAR     82  72  69 CALM      30.03R HX  87
MOUNT IDA      CLEAR     82  70  66 CALM      29.99R HX  86
$$

ARZ009-017-025-026-028-010500-
NORTHEAST ARKANSAS

CITY           SKY/WX    TMP DP  RH WIND       PRES   REMARKS
JONESBORO      PTCLDY    79  69  71 SW9       29.95R
NEWPORT        PTCLDY    78  71  79 S8        29.98R
WALNUT RIDGE   PTCLDY    79  70  73 SW10      29.95R
BLYTHEVILLE    MOCLDY    79  70  74 SW9       29.95S
$$

ARZ022-023-033-042-044-010500-
CENTRAL ARKANSAS

CITY           SKY/WX    TMP DP  RH WIND       PRES   REMARKS
LITTLE ROCK    PTCLDY    80  72  76 S5        29.99R
N LITTLE ROCK  PTCLDY    80  74  80 SW3       29.99R HX  85
JACKSONVILLE   MOCLDY    79  72  80 SE5       29.98R
SEARCY         CLEAR     75  72  90 SW3       29.99R
HOT SPRINGS    CLEAR     82  70  66 CALM      30.01R HX  86
RUSSELLVILLE   CLEAR     79  74  84 CALM      29.97R
CLINTON        FAIR      73  73 100 CALM      30.00R
$$

ARZ036-010500-
EAST ARKANSAS

CITY           SKY/WX    TMP DP  RH WIND       PRES   REMARKS
WEST MEMPHIS   PTCLDY    77  71  82 SW6       29.97R
$$

ARZ050-053-066-070-073-010500-
SOUTHWEST ARKANSAS

CITY           SKY/WX    TMP DP  RH WIND       PRES   REMARKS
ARKADELPHIA    FAIR      80  75  84 S6        30.01R HX  85
CAMDEN         PTCLDY    77  66  69 NE9       30.03R
TEXARKANA      CLEAR     78  71  79 S10       30.03R
EL DORADO      CLEAR     74  69  85 S8        30.05R
DE QUEEN       PTCLDY    81  74  79 SW5       29.99R HX  86
$$

ARZ056-057-069-010500-
SOUTHEAST ARKANSAS

CITY           SKY/WX    TMP DP  RH WIND       PRES   REMARKS
PINE BLUFF     MOCLDY    82  73  74 SW14      30.01R HX  87
STUTTGART      MOCLDY    81  72  74 MISG      30.00R
MONTICELLO     PTCLDY    77  71  82 SW12      30.03R

$$




USA.gov is the U.S. government's official web portal to all federal, state and local government web resources and services.